Simultaneous Nadir Overpasses (SNOs) Predictions

Prediction of SNOs between NOAA-19 and TERRA Satellite Orbit:

Table of predicted SNOs for the next 14.0 days since TLE Epoch: 2/14/2016
Index Date (NOAA-19) Time (NOAA-19) Lat,Lon (NOAA-19) SZA (NOAA-19 ) Date (TERRA) Time (TERRA) Lat,Lon (TERRA) SZA (TERRA ) Distance(km) Time Diff (sec)
1 02/16/2016 00:21:14 73.20,-179.41 85.72 02/16/2016 00:21:12 73.18,-179.42 85.69 2.25 2
2 02/16/2016 01:11:58 -72.61, -10.85 94.87 02/16/2016 01:10:49 -72.68, -12.76 94.83 63.91 69
3 02/18/2016 05:04:24 73.29, 109.64 85.04 02/18/2016 05:05:26 73.27, 109.69 85.02 2.50 62
4 02/18/2016 05:55:18 -73.21, -82.91 95.05 02/18/2016 05:54:55 -73.20, -82.82 95.07 3.47 23
5 02/20/2016 10:38:27 -73.27,-153.79 95.77 02/20/2016 10:39:09 -73.28,-153.73 95.77 2.07 42
6 02/20/2016 11:29:32 73.17, 13.66 84.12 02/20/2016 11:28:36 73.19, 13.74 84.14 3.15 56
7 02/22/2016 16:12:41 73.23, -57.21 83.39 02/22/2016 16:12:50 73.26, -57.19 83.41 3.23 9
8 02/22/2016 17:03:33 -73.08, 110.41 96.78 02/22/2016 17:02:20 -73.14, 110.21 96.73 9.53 73
9 02/24/2016 20:55:52 73.39,-128.32 82.74 02/24/2016 20:57:03 73.37,-128.02 82.72 9.77 71
10 02/24/2016 21:46:44 -73.24, 39.29 97.42 02/24/2016 21:46:33 -73.25, 39.37 97.42 2.63 11
11 02/27/2016 02:29:53 -73.32, -31.62 98.16 02/27/2016 02:30:47 -73.30, -31.59 98.18 2.11 54
12 02/27/2016 03:20:58 73.21, 135.87 81.72 02/27/2016 03:20:14 73.21, 135.86 81.71 0.34 44




NCC Satellite Simultaneous Nadir Overpasses (SNOs) Prediction Service
